Погода в Вахневе

Россия / Вологодская область     59°47′01″N   45°10′46″E
темп.,
°C
ветер,
м/с
пор.,
м/с
влажн.,
%
обл.,
%
осадки,
мм/ч
давл.,
гПа
погр.,
м
13 мая, чт
чт1300:00+13ююв22770 0.0 102511
03:00+12юв22809 0.0 102524
06:00+15ююв26745 0.0 1024179
09:00+21ююв35525 0.0 1024559
12:00+24ю583820 0.0 10231946
15:00+25ю46368 0.0 10212240
18:00+23ююв255179 0.0 1019210
21:00+17ююв3127183 0.0 1019328
14 мая, пт
пт1400:00+15юв2981100 0.2 1018265
03:00+13ююв2797100 3.1 1017249
06:00+14ююз279676 1.8 1017406
09:00+16зюз367739 1.8 1018672
12:00+22зюз36445 0.0 10181594
15:00+23юз4639100 0.0 10182119
18:00+20ююз2559100 0.0 1017152
21:00+15ююз237674 0.0 101840
15 мая, сб
сб1500:00+13ю11830 0.0 101711
03:00+12ююв22898 0.0 101814
06:00+16юв258097 0.0 1016168
09:00+22ююв475999 0.0 1015766
12:00+25ююв585185 0.0 10131471
15:00+26ю594954 0.0 10112041
18:00+24ю61151100 0.0 10091371
21:00+15ю2395100 3.4 101098
16 мая, вс
вс1600:00+16ююз513875 0.4 1011584
03:00+14ююз3119670 0.4 1011388
06:00+16ююз411905 0.0 1011546
09:00+20юз611583 0.0 10121252
12:00+22юз610455 0.0 10121901
15:00+23зюз5943100 0.0 10122298
18:00+21з375687 0.0 1012839
21:00+16зюз227998 0.1 101326
17 мая, пн
пн1700:00+14ююз2287100 0.1 101321
03:00+13з239698 1.8 101496
06:00+14ссз35909 0.0 1015274
09:00+18ссз34671 0.0 1017994
12:00+21сз33465 0.0 10181624
15:00+22сз2341100 0.0 10181851
18:00+20с1255100 0.0 101889
21:00+15всв1169100 0.0 101911